sat.trackr.live / text

‹ back to catalog

STARLINK-5241

NORAD 54204 · 2022-141AZ

PAYLOAD ACTIVE UNKNOWN

§ Identity

Operator
Country
US
Launch date
2022-10-28
Launch site
AFWTR
Launch vehicle
Mass (kg)
RCS (m²)

Purposes: comms

External: N2YO · Heavens-Above · Gunter

§ Orbital elements

Epoch: 2026-05-24T23:54:19.348992Z

Period
95.44 min
Inclination
53.2135°
Eccentricity
0.0001448
Mean motion
15.08839123 rev/d
Perigee alt
538.7 km
Apogee alt
540.7 km
Semi-major
6,917.9 km
B*
-3.3805e-5
RAAN
11.1338°
Arg perigee
90.2154°
Mean anomaly
269.9004°
Rev number
19,752

§ Raw data

STARLINK-52411 54204U 22141AZ  26144.99605728 -.00000826  00000+0 -33805-4 0  99982 54204  53.2135  11.1338 0001448  90.2154 269.9004 15.08839123197525

JSON: /api/v1/satellites/54204 · /tle

For live sub-satellite position, see the globe view (requires WebGL).

§ Visibility from observer

Set your observer location to see the next 7 days of passes ≥ 10°. The values pass through the URL so the page stays shareable.

No JS? Fill the form by hand. The geolocation button needs JavaScript.